AO-07 1 07530U 74089B 22335.70667806 -.00000024 00000-0 13637-3 0 9998 2 07530 101.9268 316.2286 0012462 81.2665 94.0183 12.53658937198423 UO-11 1 14781U 84021B 22335.69120904 .00000827 00000-0 10538-3 0 9999 2 14781 97.6357 315.6911 0009504 125.2290 234.9816 14.84000963 64845 AO-16 1 20439U 90005D 22335.73836778 .00000122 00000-0 61707-4 0 9996 2 20439 98.8652 316.1326 0011770 64.3486 111.1254 14.32964500716628 LO-19 1 20442U 90005G 22335.87643411 .00000124 00000-0 61965-4 0 9993 2 20442 98.8184 303.4894 0012481 41.4134 318.7993 14.33118001717081 HUBBLE 1 20580U 90037B 22335.72989307 .00002088 00000-0 11009-3 0 9996 2 20580 28.4684 139.8463 0002765 46.7759 316.7735 15.11330628591547 MET-2/21 1 22782U 93055A 22335.54043580 .00000049 00000-0 31315-4 0 9997 2 22782 82.5505 241.6124 0021110 237.3998 296.3164 13.83863778477119 AO-27 1 22825U 93061C 22335.08994482 .00000052 00000-0 37981-4 0 9996 2 22825 98.8695 9.5099 0007434 288.2543 71.7829 14.30213683521977 IO-26 1 22826U 93061D 22335.56222183 .00000071 00000-0 45054-4 0 9993 2 22826 98.8640 9.8611 0007933 271.0554 88.9719 14.30564668522552 FO-29 1 24278U 96046B 22335.76504552 -.00000030 00000-0 57328-5 0 9991 2 24278 98.5141 336.4134 0349768 208.9900 149.1411 13.53125151298234 NOAA-15 1 25338U 98030A 22335.81620595 .00000124 00000-0 69808-4 0 9994 2 25338 98.6285 3.0408 0010682 164.2992 195.8521 14.26202178276870 GO-32 1 25397U 98043D 22335.61434247 .00000054 00000-0 43368-4 0 9993 2 25397 98.8413 286.6898 0001484 30.2175 329.9089 14.23791168267213 ISS 1 25544U 98067A 22335.83175057 -.00006005 00000-0 -98535-4 0 9998 2 25544 51.6384 226.0892 0003696 106.5257 344.8184 15.49651756371189 NO-44 1 26931U 01043C 22335.52496080 .00000103 00000-0 70744-4 0 9998 2 26931 67.0515 347.1401 0005229 269.8608 90.1894 14.30769321105300 SO-50 1 27607U 02058C 22335.78051208 .00000729 00000-0 11951-3 0 9991 2 27607 64.5528 149.7479 0081018 262.6711 96.5178 14.76440569 73077 CO-55 1 27844U 03031E 22335.27001898 .00000231 00000-0 12306-3 0 9993 2 27844 98.6798 340.4568 0009514 345.2666 14.8233 14.22548755 7624 CO-57 1 27848U 03031J 22335.00417333 .00000183 00000-0 10240-3 0 9994 2 27848 98.6838 340.6759 0009687 1.0032 359.1163 14.22092160 7331 RS-22 1 27939U 03042A 22335.85998791 .00000722 00000-0 13569-3 0 9998 2 27939 98.2147 116.8078 0013437 44.3227 315.9056 14.67639520 25597 NOAA-18 1 28654U 05018A 22335.77105616 .00000180 00000-0 12066-3 0 9994 2 28654 98.9333 45.9392 0013817 215.2160 144.8100 14.12814838903607 CO-58 1 28895U 05043F 22335.84404899 .00000856 00000-0 16957-3 0 9995 2 28895 98.1287 104.9030 0015897 338.1742 21.8782 14.64690472911916 Falconsat-3 1 30776U 07006E 22335.40767764 .00135575 00000-0 83532-3 0 9992 2 30776 35.4244 233.5391 0008341 281.7805 78.1998 15.75743131875694 CO-65 1 32785U 08021C 22335.86188364 .00002456 00000-0 25797-3 0 9995 2 32785 97.6806 301.6745 0013859 44.0880 316.1441 14.90300100791419 AAUSAT2 1 32788U 08021F 22335.87961134 .00005019 00000-0 41721-3 0 9996 2 32788 97.5494 315.5842 0009651 279.5243 80.4890 14.99122078793505 DO-64 1 32789U 08021G 22335.37140738 .00014361 00000-0 69887-3 0 9994 2 32789 97.3269 355.9885 0011269 99.0606 261.1904 15.18432539797310 CO-66 1 32791U 08021J 22335.58100427 .00002937 00000-0 28237-3 0 9991 2 32791 97.6328 306.7325 0012793 0.5954 359.5279 14.93715968792214 RS-30 1 32953U 08025A 22335.94310408 .00000024 00000-0 10000-3 0 9991 2 32953 82.5034 79.7733 0018715 253.2661 106.6359 12.43115585659149 PRISM 1 33493U 09002B 22335.71743080 .00005391 00000-0 41968-3 0 9997 2 33493 98.2515 332.1891 0016399 356.3486 3.7614 15.01607618754062 NOAA-19 1 33591U 09005A 22335.79154990 .00000135 00000-0 97696-4 0 9994 2 33591 99.1292 13.2963 0014792 79.2242 281.0594 14.12644842711811 SRMSAT 1 37841U 11058D 22335.70495187 .00000399 00000-0 74357-4 0 9995 2 37841 19.9733 323.9177 0011924 22.7922 160.1968 14.10798197574880 HRBE 1 37855U 11061F 22335.84132661 .00013479 00000-0 54351-3 0 9998 2 37855 101.7154 184.2399 0143427 279.6688 78.8353 15.16067309606567 RS-40 1 38735U 12041C 22335.88922994 .00000012 00000-0 16328-4 0 9997 2 38735 82.4755 161.1191 0017551 8.2526 351.8838 12.42589171469310 ZACUBE-1 1 39417U 13066B 22335.73905989 .00001653 00000-0 20409-3 0 9998 2 39417 97.6599 299.9474 0055764 214.8591 144.8966 14.83069350487918 Delfi-N3xt 1 39428U 13066N 22335.75337896 .00002246 00000-0 34434-3 0 9990 2 39428 97.8245 263.0637 0117010 102.3198 259.1137 14.70054885483100 GOMX-1 1 39430U 13066Q 22335.77071251 .00001327 00000-0 24319-3 0 9995 2 39430 97.7960 233.3259 0146834 237.0008 121.7014 14.60678964480719 LO-74 1 39440U 13066AA 22335.82533078 .00002226 00000-0 30340-3 0 9992 2 39440 97.7485 286.5829 0076723 309.3605 50.0825 14.77658433484995 AO-73 1 39444U 13066AE 22335.35713907 .00001826 00000-0 21836-3 0 9990 2 39444 97.6470 302.0191 0054656 202.8700 157.0080 14.84305075486275 SPROUT 1 39770U 14029E 22335.78260100 .00007802 00000-0 74647-3 0 9999 2 39770 97.9572 94.1683 0007570 251.7070 108.3314 14.93474435462612 DTUSAT-2 1 40030U 14033W 22335.69520890 .00002659 00000-0 27609-3 0 9991 2 40030 97.9499 269.2922 0010163 217.8706 142.1798 14.90784461458553 EO-80 1 40032U 14033Y 22335.53599771 .00001984 00000-0 20765-3 0 9996 2 40032 97.9502 269.1475 0010059 219.6577 140.3906 14.90766136459025 HODOYOSHI-1 1 40299U 14070B 22335.75781837 .00005543 00000-0 20045-3 0 9998 2 40299 97.2242 38.9567 0010081 262.3913 191.7267 15.28791370448604 FIREBIRD FU3 1 40377U 15003B 22335.18246701 .00021667 00000-0 53387-3 0 9995 2 40377 99.0777 237.8846 0085640 176.4036 183.7837 15.36826995433955 FIREBIRD FU4 1 40378U 15003C 22335.19698302 .00021909 00000-0 53819-3 0 9994 2 40378 99.0787 238.1574 0085561 175.8541 184.3426 15.36920664433976 GRIFEX 1 40379U 15003D 22335.19099188 .00014548 00000-0 46418-3 0 9990 2 40379 99.0866 221.9190 0104826 226.0879 133.1667 15.27386760433037 XW-2A 1 40903U 15049E 22335.84944529 .00038130 00000-0 41784-3 0 9997 2 40903 97.1548 35.3357 0006826 205.0627 283.5784 15.63145022405311 XW-2C 1 40906U 15049H 22335.75468060 .00005529 00000-0 25159-3 0 9995 2 40906 97.4960 338.0701 0014458 128.8401 334.8627 15.21030968398338 XW-2D 1 40907U 15049J 22335.81947008 .00006485 00000-0 28655-3 0 9993 2 40907 97.4950 338.2876 0013849 123.5063 315.1276 15.21982625398408 LILACSAT-2 1 40908U 15049K 22335.84883532 .00003069 00000-0 15882-3 0 9991 2 40908 97.5225 334.9471 0015530 150.2018 294.2021 15.16890229397850 XW-2E 1 40909U 15049L 22335.84844074 .00010884 00000-0 41123-3 0 9990 2 40909 97.4632 343.3020 0013097 101.3025 336.4354 15.27087456398926 XW-2F 1 40910U 15049M 22335.83549988 .00010763 00000-0 41340-3 0 9994 2 40910 97.4716 342.4684 0013877 102.7412 336.1950 15.26534980398688 XW-2B 1 40911U 15049N 22335.85912402 .00006488 00000-0 28785-3 0 9999 2 40911 97.4930 338.8670 0013637 124.3472 320.0015 15.21845559398294 DCBB 1 40912U 15049P 22335.87592917 .00012856 00000-0 44146-3 0 9992 2 40912 97.4324 346.8660 0013869 70.9253 49.5686 15.30172866399315 TW-1A 1 40928U 15051D 22335.87924975 .00238656 22359-4 83931-3 0 9993 2 40928 97.0126 359.1888 0006852 109.8693 14.4581 15.89124058404496 IO-86 1 40931U 15052B 22335.79371201 .00000943 00000-0 41694-4 0 9999 2 40931 5.9955 55.2503 0013866 17.2646 342.7986 14.76930261388122 AO-85 1 40967U 15058D 22335.47202270 .00001063 00000-0 13229-3 0 5484 2 40967 64.7757 283.4829 0172852 144.4243 216.8580 14.78188152 85342 ATHENOXAT-1 1 41168U 15077C 22335.54011583 .00019201 00000-0 67776-3 0 9991 2 41168 14.9821 287.6567 0007789 74.2396 71.7318 15.26628037385823 ChubuSat-2 1 41338U 16012B 22335.57167051 .00002083 00000-0 14818-3 0 9994 2 41338 31.0043 39.3144 0012931 11.9468 348.1473 15.02095178372629 ChubuSat-3 1 41339U 16012C 22335.58610193 .00001927 00000-0 13659-3 0 9994 2 41339 31.0111 36.1390 0012573 18.9467 130.6134 15.02114583372622 Horyu-4 1 41340U 16012D 22335.76944455 .00003660 00000-0 24842-3 0 9999 2 41340 31.0056 9.7335 0012518 68.5050 291.6920 15.04542627372936 e-st@r-II 1 41459U 16025D 22335.74387504 .00011470 00000-0 44728-3 0 9991 2 41459 98.1924 153.9378 0134303 60.3272 301.1255 15.18060653362832 AAUSAT4 1 41460U 16025E 22335.79135826 .00021286 00000-0 67484-3 0 9996 2 41460 98.1785 162.0058 0108459 29.6400 343.1493 15.27097098363406 LO-87 1 41557U 16033B 22335.91758466 .00017956 00000-0 45283-3 0 9999 2 41557 97.3898 74.4399 0010733 134.2483 335.4789 15.39863129363102 NuSat2 1 41558U 16033C 22335.87173912 .00017042 00000-0 40460-3 0 9990 2 41558 97.4147 81.0716 0010402 123.5108 353.5500 15.41711442363392 Lapan A3 1 41603U 16040E 22335.88399600 .00001355 00000-0 63672-4 0 9995 2 41603 97.1885 5.4968 0011404 296.2235 181.2033 15.21178400357489 Pratham 1 41783U 16059A 22335.32753089 .00000395 00000-0 84406-4 0 9999 2 41783 97.8943 10.0418 0033455 9.0224 351.1572 14.63519321330034 TY-1 1 41844U 16066D 22335.96003274 .00015748 00000-0 46009-3 0 9993 2 41844 97.3839 347.6722 0013695 55.2967 341.7823 15.35292165337269 CAS-2T 1 41847U 16066G 22335.46211824 .00000670 00000-0 10872-3 0 9990 2 41847 98.5319 39.8118 0363639 70.1986 293.8021 14.38928640318363 EO-88 1 42017U 17008BX 22335.18342607 .00027119 00000-0 64751-3 0 9992 2 42017 97.2487 39.3561 0004252 25.5799 334.5658 15.41488849322698 CAS-4B 1 42759U 17034B 22335.86430083 .00002876 00000-0 17081-3 0 9992 2 42759 43.0160 129.0658 0011486 270.2440 242.5301 15.13353199301701 CAS-4A 1 42761U 17034D 22335.89239774 .00003229 00000-0 18974-3 0 9997 2 42761 43.0163 127.5745 0011673 274.0140 249.4193 15.13445241301710 NIUSat 1 42766U 17036B 22335.67799892 .00010191 00000-0 35671-3 0 9991 2 42766 97.1844 7.6762 0014564 91.9418 268.3491 15.29587320302336 Aalto 1 1 42775U 17036L 22335.82708221 .00008413 00000-0 30790-3 0 9995 2 42775 97.1796 7.3930 0013639 91.7366 268.5436 15.28194872302312 URSA MAIOR 1 42776U 17036M 22335.07968829 .00008428 00000-0 30078-3 0 9990 2 42776 97.1808 7.5954 0013277 92.6132 267.6629 15.29024325302246 Max Valier Sat 1 42778U 17036P 22335.08358551 .00009860 00000-0 33929-3 0 9997 2 42778 97.1860 10.5815 0011881 92.4251 267.8350 15.30185687302351 Pegasus 1 42784U 17036V 22335.53632625 .00014500 00000-0 45516-3 0 9993 2 42784 97.1798 12.2852 0011048 90.2113 270.0396 15.33061974302571 NUDATSat 1 42787U 17036Y 22335.94444173 .00029165 00000-0 68817-3 0 9992 2 42787 97.1795 18.3848 0009021 74.8893 285.3354 15.41798111302824 SUCHAI 1 1 42788U 17036Z 22335.09514331 .00018697 00000-0 53419-3 0 9993 2 42788 97.1793 14.0412 0010156 85.3745 274.8659 15.35993957302714 SKCUBE 1 42789U 17036AA 22335.06843236 .00017068 00000-0 50932-3 0 9998 2 42789 97.1794 13.2379 0010338 86.7370 273.5056 15.34643027302581 VZLUSAT 1 1 42790U 17036AB 22335.71680497 .00030741 00000-0 73402-3 0 9990 2 42790 97.1806 18.0747 0008571 75.5921 284.6277 15.41434224302935 VENTA 1 1 42791U 17036AC 22335.58305073 .00014487 00000-0 44994-3 0 9993 2 42791 97.1801 13.4312 0010250 87.3325 272.9091 15.33410575302639 Robusta 1B 1 42792U 17036AD 22335.08058578 .00017997 00000-0 52145-3 0 9990 2 42792 97.1790 13.9754 0009854 86.1320 274.1051 15.35565641302640 D-SAT 1 42794U 17036AF 22335.63001741 .00001988 00000-0 16933-3 0 9991 2 42794 97.4571 332.3472 0119434 244.8847 113.9944 14.93523479296425 TechnoSat 1 42829U 17042E 22335.07100080 .00001392 00000-0 14105-3 0 9999 2 42829 97.4001 179.3629 0014096 163.7341 196.4334 14.92329793292934 AO-91 1 43017U 17073E 22335.74968919 .00005701 00000-0 42111-3 0 9996 2 43017 97.6534 223.0273 0244352 359.7689 0.3373 14.82739556271890 PICSAT 1 43132U 18004X 22335.45849404 .00015638 00000-0 43839-3 0 9992 2 43132 97.3580 51.3221 0008143 117.7667 242.4404 15.36649113272002 AO-92 1 43137U 18004AC 22335.47879226 .00014290 00000-0 44590-3 0 9992 2 43137 97.3537 49.3716 0008329 123.3401 236.8639 15.33286556271900 TianYi 2 1 43155U 18008A 22335.78132811 .00007619 00000-0 37772-3 0 9993 2 43155 97.3310 28.8567 0013678 283.8370 214.9174 15.17932469268635 Zhou Enlai 1 43156U 18008B 22335.74926525 .00008532 00000-0 42383-3 0 9992 2 43156 97.3360 28.7624 0011111 284.5436 212.4439 15.17853866268556 TianYi 6 1 43158U 18008D 22335.84918787 .00006860 00000-0 35584-3 0 9993 2 43158 97.3317 26.4644 0010730 287.5797 124.9369 15.16408823268452 S-Net D 1 43186U 18014G 22335.19867787 .00001953 00000-0 16751-3 0 9995 2 43186 97.6452 237.6816 0011602 98.0489 262.2050 14.98601833263885 S-Net B 1 43187U 18014H 22335.53292223 .00002024 00000-0 17344-3 0 9990 2 43187 97.6449 237.9525 0011661 96.9687 263.2862 14.98600403263934 S-Net A 1 43188U 18014J 22335.53322493 .00002044 00000-0 17511-3 0 9992 2 43188 97.6454 238.0263 0011667 97.0349 263.2201 14.98600809263932 S-Net C 1 43189U 18014K 22335.20043903 .00001934 00000-0 16598-3 0 9994 2 43189 97.6454 237.6127 0011694 97.8844 262.3707 14.98594603262434 FMN 1 1 43192U 18015A 22335.76479897 .00057317 00000-0 95783-3 0 9994 2 43192 97.5519 126.9288 0008995 157.1668 316.7894 15.51695090269251 Shaonian Xing 1 43199U 18015H 22335.75149889 .00024468 00000-0 58890-3 0 9994 2 43199 97.5329 119.9966 0012101 162.0809 310.5782 15.41205829269140 SurfSat 1 43614U 18070B 22335.81855773 .00128189 00000-0 81240-3 0 9990 2 43614 93.0006 170.3848 0008666 64.3270 295.8898 15.76128518237204 CP-7 DAVE 1 43615U 18070C 22335.05186588 .00092476 00000-0 72290-3 0 9992 2 43615 93.0003 169.6424 0009602 71.7198 288.5117 15.71298131237011 CubeBel-1 1 43666U 18083E 22335.87473266 .00011708 00000-0 44763-3 0 9997 2 43666 97.4062 2.8814 0013940 100.7881 318.4322 15.26663058226993 Changshagaoxin 1 43669U 18083H 22335.91777872 .00009628 00000-0 38996-3 0 9994 2 43669 97.4018 358.3783 0010786 99.2755 22.1817 15.24826836226797 Ten-Koh 1 43677U 18084G 22335.34749190 .00001208 00000-0 12592-3 0 9993 2 43677 97.9867 107.2034 0016880 82.4948 277.8187 14.91622589222553 PO-101 1 43678U 18084H 22335.87627769 .00001062 00000-0 10910-3 0 9999 2 43678 97.9938 111.3865 0011223 93.8054 266.4471 14.92515781222827 IRVINE 01 1 43693U 18088D 22335.86836086 .00111470 00000-0 14273-2 0 9993 2 43693 85.0223 196.0183 0004490 146.1191 214.0358 15.58803198226073 QO-100 1 43700U 18090A 22335.53081464 .00000146 00000-0 00000-0 0 9999 2 43700 0.0175 305.2843 0001249 330.6807 11.3063 1.00272159 14700 Reaktor Hello World 1 43743U 18096AA 22335.75345158 .00018839 00000-0 48702-3 0 9991 2 43743 97.3409 55.3056 0013679 172.9209 187.2233 15.39056071223645 MinXSS-2 1 43758U 18099A 22335.66137617 .00003654 00000-0 30987-3 0 9994 2 43758 97.6058 39.4800 0016192 68.2229 292.0715 14.98458894218137 AO-95 1 43770U 18099N 22335.64726717 .00002771 00000-0 24304-3 0 9996 2 43770 97.6014 37.5652 0015109 77.4929 282.7983 14.97353874218025 RANGE-B 1 43772U 18099Q 22335.15816044 .00002635 00000-0 22604-3 0 9997 2 43772 97.6149 39.1972 0014530 64.0304 296.2414 14.98272669217981 RANGE-A 1 43773U 18099R 22335.42593772 .00001422 00000-0 12927-3 0 9998 2 43773 97.5938 35.9389 0014249 65.5498 294.7209 14.96699932217967 MOVE-II 1 43780U 18099Y 22335.63397262 .00004256 00000-0 35287-3 0 9997 2 43780 97.6056 39.1578 0012280 68.8650 291.3885 14.99286884218091 SNUSat 2 1 43782U 18099AA 22335.81247602 .00002146 00000-0 18889-3 0 9996 2 43782 97.6035 38.2292 0013733 63.1311 297.1313 14.97465780218079 SnugLite 1 43784U 18099AC 22335.75522353 .00002047 00000-0 17887-3 0 9997 2 43784 97.5988 37.7976 0015591 68.4299 291.8583 14.97766613218098 ITASat 1 1 43786U 18099AE 22335.42970225 .00001685 00000-0 14958-3 0 9991 2 43786 97.6047 38.3543 0015654 69.5957 290.6945 14.97377107218036 EAGLET 1 1 43790U 18099AJ 22335.64665104 .00001718 00000-0 15245-3 0 9994 2 43790 97.6037 39.1082 0014015 73.1885 287.0873 14.97399912217800 ESEO 1 43792U 18099AL 22335.45610012 .00001434 00000-0 13069-3 0 9990 2 43792 97.5991 37.8688 0014497 72.4064 287.8740 14.96587621217808 CSIM 1 43793U 18099AM 22335.26628920 .00005087 00000-0 41346-3 0 9994 2 43793 97.6080 39.8693 0015683 69.1286 291.1615 14.99929594217872 Astrocast 0.1 1 43798U 18099AS 22335.64109454 .00003560 00000-0 29899-3 0 9990 2 43798 97.6049 39.8818 0011748 48.5264 311.6966 14.98897111218142 JO-97 1 43803U 18099AX 22335.64959222 .00003058 00000-0 26267-3 0 9991 2 43803 97.6002 38.3890 0015391 69.6060 290.6815 14.98082828218092 Suomi 100 1 43804U 18099AY 22335.81449285 .00002317 00000-0 20095-3 0 9994 2 43804 97.6019 38.4328 0016130 67.7893 292.5038 14.97939009218126 Al Farabi 2 1 43805U 18099AZ 22335.85832467 .00003843 00000-0 32288-3 0 9999 2 43805 97.6012 39.1788 0015456 69.7556 290.5307 14.98794808218164 CHOMPTT 1 43855U 18104G 22335.34155675 .00011416 00000-0 38239-3 0 9991 2 43855 85.0318 299.6460 0013479 351.7307 8.3715 15.30707682220229 ISAT 1 43879U 18111D 22335.67042627 .00003600 00000-0 30022-3 0 9991 2 43879 97.6516 238.2347 0013796 117.4861 242.7766 14.99149739214715 UWE-4 1 43880U 18111E 22335.19197959 .00002873 00000-0 24016-3 0 9996 2 43880 97.6558 238.5718 0011547 118.7408 241.4976 14.99238235212673 Sparrow 1 43881U 18111F 22335.52257519 .00003147 00000-0 26101-3 0 9995 2 43881 97.6573 239.1991 0011229 114.4516 245.7879 14.99474913214734 Lume 1 1 43908U 18111AJ 22335.13378983 .00012433 00000-0 37569-3 0 9999 2 43908 97.1667 217.8301 0015673 190.4542 169.6378 15.34248408218911 FO-99 1 43937U 19003F 22335.30036387 .00015956 00000-0 46223-3 0 9990 2 43937 97.1142 2.4792 0016159 276.7369 83.2037 15.35513201215533 MYSat 1 1 44045U 18092F 22335.34880730 .00451542 90436-4 12820-2 0 9997 2 44045 51.6177 305.6590 0009684 71.3681 288.8377 15.92710277214020 AstroCast 0.2 1 44083U 19018F 22335.41123326 .00012901 00000-0 42863-3 0 9994 2 44083 97.3010 31.3375 0007251 245.4379 114.6107 15.31304661203995 AISTechSat 3 1 44103U 19018AB 22335.11463191 .00010073 00000-0 33949-3 0 9994 2 44103 97.2873 31.1897 0009492 261.8411 98.1754 15.30887411204116 AISat 1 1 44104U 19018AC 22335.19409616 .00009602 00000-0 24632-3 0 9990 2 44104 97.3872 59.1854 0047279 254.3907 105.2117 15.38392552205201 Prox-1 1 44339U 19036A 22335.81776938 .00003129 00000-0 64610-3 0 9991 2 44339 23.9996 216.0779 0010508 250.8319 109.1036 14.56238839182760 Oculus-ASR 1 44348U 19036K 22335.48488677 .00106551 -34575-5 60429-3 0 9991 2 44348 28.4937 101.5257 0160387 56.7001 304.8854 15.61413126190432 NO-104 1 44354U 19036R 22335.61839291 .00126090 -21435-5 62903-3 0 9995 2 44354 28.5190 80.7647 0146972 86.1853 275.5544 15.66174665190659 Move-IIb 1 44398U 19038N 22335.90045080 .00015153 00000-0 63515-3 0 9998 2 44398 97.6470 307.4525 0016916 271.3386 88.5914 15.23484647188480 SONATE 1 44400U 19038Q 22333.00823403 .00005408 00000-0 28008-3 0 9994 2 44400 97.6627 302.6183 0020780 288.0775 71.8194 15.16455170187852 BeeSat 9 1 44412U 19038AC 22335.86180203 .00010882 00000-0 50501-3 0 9992 2 44412 97.6564 306.8909 0016622 277.7315 82.2032 15.20095627188098 JAISAT-1 1 44419U 19038F 22335.40104740 .00009928 00000-0 45542-3 0 9999 2 44419 97.6565 307.3876 0015614 276.1578 83.7878 15.20535934188396 Taurus 1 1 44530U 19059C 22335.78391584 .00002153 00000-0 59343-3 0 9998 2 44530 98.5513 76.0167 0012198 335.5244 24.5382 14.47848295170052 Duchifat 3 1 44854U 19089C 22335.82434103 .00003435 00000-0 25999-3 0 9994 2 44854 36.9645 187.2288 0005923 147.4808 320.0575 15.02442766163107 OPS-SAT 1 44878U 19092F 22335.76953078 .00011146 00000-0 46854-3 0 9995 2 44878 97.4774 158.6697 0012676 113.2898 246.9674 15.23514820163635 TO-108 1 44881U 19093C 22335.77204793 .00000563 00000-0 77580-4 0 9996 2 44881 97.8809 52.4874 0015189 7.0058 353.1358 14.81949479159551 FloripaSat 1 1 44885U 19093G 22335.76094146 .00001936 00000-0 23947-3 0 9990 2 44885 97.8864 54.2625 0014326 11.8591 348.2973 14.83845474159658 RS-44 1 44909U 19096E 22335.65662086 .00000035 00000-0 10529-3 0 9993 2 44909 82.5191 119.2055 0216453 288.8552 68.9189 12.79716827136894 BY70-2 1 45857U 20042B 22335.79709218 .00007198 00000-0 90655-3 0 9998 2 45857 97.9446 51.1947 0008842 292.4931 67.5361 14.82284272130225 UPMSat 2 1 46276U 20061E 22335.58492946 .00004333 00000-0 20651-3 0 9996 2 46276 97.3745 42.5679 0000924 33.7597 326.3696 15.19632175124242 AmicalSat 1 46287U 20061R 22335.41698945 .00005823 00000-0 31875-3 0 9992 2 46287 97.4287 41.1865 0003726 73.4026 286.7615 15.14608442123726 SALSAT 1 46495U 20068K 22335.72365593 .00003210 00000-0 22765-3 0 9990 2 46495 97.7476 277.2958 0017788 71.8106 288.5055 15.05381423119347 BY70-3 1 46839U 20079N 22335.88299480 .00039991 00000-0 65824-3 0 9990 2 46839 97.1804 46.5765 0005153 90.1272 359.5572 15.52230051116119 CAPE 3 1 47309U 21002A 22335.32923309 .00012801 00000-0 45445-3 0 9991 2 47309 60.6816 95.3009 0041828 78.2268 282.3509 15.28602340103929 AO-109 1 47311U 21002C 22335.34504664 .00011253 00000-0 40217-3 0 9997 2 47311 60.6839 92.6571 0038376 76.9403 283.5966 15.28627248103947 MiTEE 1 1 47314U 21002F 22335.72891883 .00028994 00000-0 76220-3 0 9997 2 47314 60.6797 78.2682 0034789 69.7713 290.7116 15.37864370104244 ExoCube 2 1 47319U 21002L 22335.32906425 .00011003 00000-0 39911-3 0 9996 2 47319 60.6825 94.1948 0039552 78.2549 282.2974 15.28118731103888 UVSQ-SAT 1 47438U 21006AB 22335.79531777 .00007018 00000-0 34825-3 0 9997 2 47438 97.4167 31.3914 0012571 58.3571 301.8888 15.17943133102644 YUSAT 1 1 47439U 21006AC 22335.43445402 .00008503 00000-0 41091-3 0 9991 2 47439 97.4175 31.3025 0012191 59.1980 301.0453 15.18809313102606 SOMP 2b 1 47445U 21006AJ 22335.83644806 .00007342 00000-0 36936-3 0 9993 2 47445 97.4141 30.9408 0012397 62.2347 298.0142 15.17450890102630 IDEASSat 1 47458U 21006AX 22335.77066444 .00007027 00000-0 35548-3 0 9994 2 47458 97.4228 31.5259 0011538 61.5974 298.6421 15.17279629102618 CubeSX-Sirius-HSE 1 47951U 21022V 22335.76665926 .00004734 00000-0 30184-3 0 9992 2 47951 97.5138 231.7522 0019198 297.6947 147.0073 15.09040575 93218 CubeSX-HSE 1 47952U 21022W 22335.81500241 .00004669 00000-0 29733-3 0 9992 2 47952 97.5129 231.8287 0019086 296.5954 153.7070 15.09094532 93224 KSU-Cubesat 1 47954U 21022Y 22335.66404305 .00006378 00000-0 40056-3 0 9991 2 47954 97.5147 231.8660 0018509 296.2376 63.6950 15.09478278 92931 GRBAlpha 1 47959U 21022AD 22335.87087971 .00005009 00000-0 31831-3 0 9996 2 47959 97.5131 231.9381 0019006 296.9431 125.7939 15.09138730 92058 Orbicraft-Zorkiy 1 47960U 21022AE 22335.76187303 .00005102 00000-0 32174-3 0 9991 2 47960 97.5158 232.0550 0018780 297.8217 147.9690 15.09420036 92737 STECCO 1 47962U 21022AG 22335.85067503 .00008763 00000-0 50932-3 0 9990 2 47962 97.5130 233.3305 0013322 289.7253 134.7724 15.12252173 92144 DO-111 1 47963U 21022AH 22335.18670872 .00023903 00000-0 10992-2 0 9990 2 47963 97.5168 235.1118 0012015 283.8906 76.0993 15.20282818 92218 MO-110 1 47964U 21022AJ 22335.50687525 .00008813 00000-0 50520-3 0 9995 2 47964 97.5149 233.3719 0015602 286.0625 73.8888 15.12718078 92113 FEES 1 48082U 21022AL 22335.20349022 .00013342 00000-0 73081-3 0 9991 2 48082 97.5152 233.2374 0011784 285.3617 74.6313 15.14279942 91783 CSS 1 48274U 21035A 22335.93336471 -.00035036 00000-0 -43237-3 0 9998 2 48274 41.4722 277.4472 0006607 356.1779 86.6181 15.59147870 90991 TUBIN 1 48900U 21059X 22335.87070212 .00004248 00000-0 22857-3 0 9995 2 48900 97.5754 104.2078 0008761 241.7986 274.0451 15.15366269 79251 IT-SPINS 1 49017U 21013G 22335.66958011 .00011369 00000-0 39334-3 0 9994 2 49017 51.5972 317.4830 0007489 333.5882 26.4716 15.30320894 79353 LEDSAT 1 49069U 21073D 22335.78414092 .00004058 00000-0 25037-3 0 9998 2 49069 97.5087 45.3502 0027760 81.6413 278.7962 15.10157552 71078 CUTE 1 49263U 21088D 22335.61787089 .00004525 00000-0 32548-3 0 9995 2 49263 97.5700 40.1810 0018886 212.9275 147.0776 15.04591630 64542 TeikyoSat 4 1 49396U 21102B 22335.43455487 .00001713 00000-0 13766-3 0 9990 2 49396 97.5399 28.3097 0017815 52.9199 307.3650 15.01193410 58092 Z-Sat 1 49399U 21102E 22335.81986151 .00001648 00000-0 12559-3 0 9998 2 49399 97.5172 29.8732 0023379 26.3662 333.8748 15.03201363 58224 KOSEN 1 1 49402U 21102H 22335.62368702 .00002388 00000-0 17430-3 0 9993 2 49402 97.5098 29.9321 0022217 16.8561 343.3398 15.04436363 58232 HO-113 1 50466U 21131B 22335.80051848 .00000189 00000-0 76445-4 0 9996 2 50466 98.5695 52.8764 0004559 24.6423 335.4982 14.38584348 48971 Tevel 1 50999U 22002R 22335.90801941 .00008642 00000-0 43234-3 0 9994 2 50999 97.4613 40.3754 0010450 190.6320 285.0714 15.17615366 48794 Grizu-263a 1 51025U 22002AT 22335.47106862 .00020278 00000-0 88614-3 0 9997 2 51025 97.4797 41.6403 0011201 195.9927 164.0957 15.22073335 48794 NO-116 1 51031U 22002AZ 22335.14683680 .00012028 00000-0 56664-3 0 9990 2 51031 97.4748 40.6569 0011794 198.5588 161.5218 15.19602484 48711 IRIS-A 1 51044U 22002BN 22335.60171359 .00006021 00000-0 32530-3 0 9992 2 51044 97.4637 39.4380 0008473 197.6260 162.4680 15.15044265 48701 DELFI-PQ 1 51074U 22002CU 22335.15377606 .00013649 00000-0 60874-3 0 9994 2 51074 97.4882 41.9506 0011673 228.7641 131.2590 15.21459893 48763 SO-115 1 51080U 22002DA 22335.46165701 .00009624 00000-0 45521-3 0 9996 2 51080 97.4896 41.9027 0011671 229.1734 130.8489 15.19526132 48781 SO-114 1 51081U 22002DB 22335.46159646 .00009895 00000-0 46762-3 0 9996 2 51081 97.4889 41.8680 0011951 228.8909 131.1294 15.19545884 48782 OreSat0 1 52017U 22026K 22335.74022219 .00008470 00000-0 42171-3 0 9996 2 52017 97.5090 333.7419 0027843 56.0648 304.3227 15.17494602 39530 Planetum 1 1 52738U 22057G 22335.26719745 .00006679 00000-0 37074-3 0 9999 2 52738 97.5255 87.5197 0006973 322.3268 37.7475 15.14049149 28650 Foresail-1 1 52766U 22057AL 22335.86570370 .00004768 00000-0 25929-3 0 9998 2 52766 97.5364 88.6976 0011883 297.1631 158.8497 15.14899595 28767 SNUGLITE 2 1 52899U 22065F 22335.01195822 .00000651 00000-0 14955-3 0 9990 2 52899 98.0400 120.8239 0009136 113.0285 247.1927 14.58576742 21970 CTIM 1 52950U 22074G 22335.80303967 .00013358 00000-0 49587-3 0 9993 2 52950 45.0125 8.1673 0006709 37.0895 323.0463 15.27574417 23288 IO-117 1 53106U 22080B 22334.45194177 -.00000003 00000-0 00000-0 0 9993 2 53106 70.1746 28.7668 0008951 229.3699 130.6183 6.42557462 8980 AstroBioCubeSat 1 53107U 22080C 22335.48380743 -.00000003 00000-0 00000+0 0 9993 2 53107 70.1708 28.4998 0013747 221.0196 138.9480 6.42110587 8942 CELESTA 1 53111U 22080G 22310.17474584 -.00000003 00000-0 00000+0 0 9994 2 53111 70.4223 37.2580 0024959 243.8956 115.9136 6.43203861 7301 RS4S 1 53306U 98067TZ 22335.72972970 .00124802 00000-0 10514-2 0 9995 2 53306 51.6353 219.5992 0008591 153.5362 206.6075 15.68884643 20749 RS3S 1 53308U 98067TT 22335.74138107 .00116225 00000-0 10046-2 0 9995 2 53308 51.6352 219.6733 0008454 152.8183 207.3258 15.68293728 20801 RS1S 1 53309U 98067TU 22335.78483593 .00120925 00000-0 10167-2 0 9998 2 53309 51.6346 219.2066 0008943 156.7822 203.3581 15.68944333 20761 RS5S 1 53310U 98067TV 22335.74020967 .00114418 00000-0 98966-3 0 9992 2 53310 51.6353 219.6645 0008632 154.9137 205.2281 15.68282316 20788 RS6S 1 53311U 98067TW 22335.82733129 .00128869 00000-0 10511-2 0 9997 2 53311 51.6346 218.7389 0008517 153.4339 206.7096 15.69653905 20828 RS9S 1 53312U 98067TX 22335.78722741 .00123260 00000-0 10499-2 0 9996 2 53312 51.6354 219.2296 0008983 156.8623 203.2779 15.68618356 20753 RS12S 1 53313U 98067TY 22335.78289853 .00119400 00000-0 10101-2 0 9990 2 53313 51.6356 219.2016 0008563 158.2973 201.8388 15.68804097 20809 JAGSAT 1 53771U 98067UJ 22335.81151556 .00133925 00000-0 11799-2 0 9992 2 53771 51.6351 220.8967 0009761 169.1248 190.9961 15.67743247 13481 SelfieSat 1 53951U 22057BA 22335.28315219 .00007157 00000-0 39336-3 0 9992 2 53951 97.5305 87.7745 0009349 312.4188 47.6252 15.14365951 28662 /EX